Wetterdaten: Woche 05.03.18 - 11.03.18 (KW10)
Datum Zeit Temp. I. Temp. A. Feuchte I. Feuchte A. Luftdruck Regen Wind Richtung Sonnenschein UV Solar Taupunkt Windchill Windben
05.03.2018 00:00 22,7 C -0,8 C 59 % 74 % 1001,3 hPa 0,0 l/m 3,3 km/h (1 Bft) O-NO 0,00 h 0,0 UV-I 0 W/m -4,8 C -0,9 C 6,7 km/h (2 Bft)
05.03.2018 01:00 22,6 C -1,1 C 59 % 75 % 1001,6 hPa 0,0 l/m 3,3 km/h (1 Bft) O-NO 0,00 h 0,0 UV-I 0 W/m -5,0 C -1,4 C 6,4 km/h (2 Bft)
05.03.2018 02:00 22,4 C -1,0 C 59 % 76 % 1000,6 hPa 0,0 l/m 6,4 km/h (2 Bft) O-NO 0,00 h 0,0 UV-I 0 W/m -4,7 C -2,5 C 12,3 km/h (3 Bft)
05.03.2018 03:00 22,3 C -0,9 C 59 % 76 % 1001,3 hPa 0,0 l/m 0,1 km/h (0 Bft) W 0,00 h 0,0 UV-I 0 W/m -4,5 C -0,9 C 0,1 km/h (0 Bft)
05.03.2018 04:00 22,2 C -1,3 C 59 % 78 % 1001,2 hPa 0,0 l/m 1,8 km/h (1 Bft) NO 0,00 h 0,0 UV-I 0 W/m -4,6 C -1,3 C 3,7 km/h (1 Bft)
05.03.2018 05:00 22,2 C -2,0 C 59 % 79 % 1001,5 hPa 0,0 l/m 2,7 km/h (1 Bft) O-NO 0,00 h 0,0 UV-I 0 W/m -5,1 C -2,0 C 6,1 km/h (2 Bft)
05.03.2018 06:00 22,3 C -2,0 C 59 % 80 % 1001,7 hPa 0,0 l/m 1,9 km/h (1 Bft) O-NO 0,00 h 0,0 UV-I 8 W/m -5,0 C -2,0 C 4,9 km/h (1 Bft)
05.03.2018 07:00 22,4 C -1,8 C 58 % 81 % 1001,9 hPa 0,0 l/m 3,2 km/h (1 Bft) NO 0,00 h 0,0 UV-I 24 W/m -4,6 C -1,8 C 6,4 km/h (2 Bft)
05.03.2018 08:00 22,7 C -1,3 C 58 % 81 % 1002,2 hPa 0,0 l/m 2,3 km/h (1 Bft) NO 0,00 h 0,0 UV-I 56 W/m -4,1 C -1,3 C 5,0 km/h (1 Bft)
05.03.2018 09:00 22,7 C -0,6 C 57 % 80 % 1002,0 hPa 0,0 l/m 2,8 km/h (1 Bft) O-NO 0,00 h 0,5 UV-I 86 W/m -3,6 C -0,7 C 5,5 km/h (1 Bft)
05.03.2018 10:00 22,8 C 0,3 C 57 % 78 % 1001,6 hPa 0,0 l/m 3,3 km/h (1 Bft) O-NO 0,37 h 0,8 UV-I 146 W/m -3,0 C 0,1 C 7,2 km/h (2 Bft)
05.03.2018 11:00 23,0 C 1,7 C 57 % 76 % 1001,1 hPa 0,0 l/m 6,5 km/h (2 Bft) O-NO 1,00 h 1,2 UV-I 246 W/m -2,1 C 0,5 C 11,9 km/h (2 Bft)
05.03.2018 12:00 23,3 C 2,7 C 56 % 73 % 1000,7 hPa 0,0 l/m 5,0 km/h (1 Bft) O-NO 1,00 h 1,5 UV-I 303 W/m -1,5 C 2,1 C 9,5 km/h (2 Bft)
05.03.2018 13:00 23,6 C 3,8 C 55 % 72 % 1000,1 hPa 0,0 l/m 5,2 km/h (1 Bft) O-NO 1,00 h 1,5 UV-I 355 W/m -0,7 C 3,4 C 10,9 km/h (2 Bft)
05.03.2018 14:00 23,7 C 4,0 C 54 % 72 % 999,5 hPa 0,0 l/m 4,7 km/h (1 Bft) O 1,00 h 1,3 UV-I 334 W/m -0,5 C 3,6 C 10,9 km/h (2 Bft)
05.03.2018 15:00 23,6 C 3,4 C 51 % 75 % 999,0 hPa 0,0 l/m 5,9 km/h (2 Bft) O-NO 0,93 h 0,9 UV-I 234 W/m -0,5 C 2,7 C 12,1 km/h (2 Bft)
05.03.2018 16:00 23,2 C 2,4 C 48 % 76 % 998,5 hPa 0,0 l/m 4,1 km/h (1 Bft) O 0,22 h 0,5 UV-I 109 W/m -1,5 C 2,2 C 9,1 km/h (2 Bft)
05.03.2018 17:00 22,9 C 1,4 C 50 % 77 % 998,3 hPa 0,0 l/m 4,6 km/h (1 Bft) O 0,00 h 0,0 UV-I 27 W/m -2,1 C 1,2 C 9,7 km/h (2 Bft)
05.03.2018 18:00 22,7 C 0,7 C 51 % 80 % 998,0 hPa 0,0 l/m 8,0 km/h (2 Bft) O-NO 0,00 h 0,0 UV-I 0 W/m -2,4 C -1,2 C 13,7 km/h (3 Bft)
05.03.2018 19:00 22,7 C 0,1 C 52 % 84 % 997,9 hPa 0,0 l/m 7,1 km/h (2 Bft) O-NO 0,00 h 0,0 UV-I 0 W/m -2,4 C -1,2 C 14,5 km/h (3 Bft)
05.03.2018 20:00 22,7 C -0,3 C 53 % 86 % 997,8 hPa 0,0 l/m 6,2 km/h (2 Bft) O-NO 0,00 h 0,0 UV-I 0 W/m -2,3 C -1,1 C 12,5 km/h (3 Bft)
05.03.2018 21:00 22,7 C -0,5 C 54 % 87 % 997,4 hPa 0,0 l/m 7,7 km/h (2 Bft) O-NO 0,00 h 0,0 UV-I 0 W/m -2,4 C -2,2 C 13,9 km/h (3 Bft)
05.03.2018 22:00 22,8 C -0,8 C 54 % 87 % 996,9 hPa 0,0 l/m 7,1 km/h (2 Bft) O-NO 0,00 h 0,0 UV-I 0 W/m -2,6 C -2,3 C 14,3 km/h (3 Bft)
05.03.2018 23:00 22,8 C -0,9 C 55 % 88 % 996,5 hPa 0,0 l/m 4,6 km/h (1 Bft) O-NO 0,00 h 0,0 UV-I 0 W/m -2,6 C -1,2 C 10,0 km/h (2 Bft)
06.03.2018 00:00 22,7 C -1,2 C 55 % 88 % 996,3 hPa 0,0 l/m 3,4 km/h (1 Bft) O-NO 0,00 h 0,0 UV-I 0 W/m -2,8 C -1,3 C 8,9 km/h (2 Bft)
06.03.2018 01:00 22,5 C -1,3 C 56 % 89 % 996,0 hPa 0,0 l/m 5,5 km/h (1 Bft) NO 0,00 h 0,0 UV-I 0 W/m -2,8 C -2,2 C 12,5 km/h (3 Bft)
06.03.2018 02:00 22,4 C -1,5 C 57 % 90 % 995,4 hPa 0,0 l/m 6,1 km/h (2 Bft) O-NO 0,00 h 0,0 UV-I 0 W/m -2,9 C -2,6 C 12,0 km/h (2 Bft)
06.03.2018 03:00 22,3 C -1,8 C 57 % 91 % 994,8 hPa 0,0 l/m 7,9 km/h (2 Bft) O-NO 0,00 h 0,0 UV-I 0 W/m -3,1 C -3,7 C 13,8 km/h (3 Bft)
06.03.2018 04:00 22,2 C -2,1 C 57 % 92 % 994,5 hPa 0,0 l/m 5,3 km/h (1 Bft) O-NO 0,00 h 0,0 UV-I 0 W/m -3,2 C -2,6 C 11,1 km/h (2 Bft)
06.03.2018 05:00 22,1 C -2,2 C 57 % 92 % 994,2 hPa 0,0 l/m 4,7 km/h (1 Bft) O-NO 0,00 h 0,0 UV-I 0 W/m -3,3 C -3,0 C 9,7 km/h (2 Bft)
06.03.2018 06:00 22,1 C -2,2 C 57 % 92 % 993,9 hPa 0,0 l/m 4,4 km/h (1 Bft) O-NO 0,00 h 0,0 UV-I 0 W/m -3,3 C -2,6 C 9,4 km/h (2 Bft)
06.03.2018 07:00 22,2 C -2,1 C 57 % 92 % 993,6 hPa 0,0 l/m 4,1 km/h (1 Bft) O-NO 0,00 h 0,0 UV-I 12 W/m -3,2 C -2,5 C 9,0 km/h (2 Bft)
06.03.2018 08:00 22,3 C -1,8 C 56 % 92 % 993,3 hPa 0,0 l/m 3,6 km/h (1 Bft) O-NO 0,00 h 0,0 UV-I 38 W/m -3,0 C -2,0 C 7,6 km/h (2 Bft)
06.03.2018 09:00 22,4 C -1,4 C 56 % 90 % 993,2 hPa 0,0 l/m 4,0 km/h (1 Bft) O-SO 0,00 h 0,5 UV-I 73 W/m -2,8 C -1,6 C 8,3 km/h (2 Bft)
06.03.2018 10:00 22,6 C -0,8 C 55 % 89 % 993,0 hPa 0,0 l/m 4,2 km/h (1 Bft) O-SO 0,00 h 0,7 UV-I 110 W/m -2,4 C -1,2 C 8,9 km/h (2 Bft)
06.03.2018 11:00 22,7 C 0,0 C 57 % 86 % 992,7 hPa 0,0 l/m 2,7 km/h (1 Bft) O-NO 0,12 h 0,9 UV-I 133 W/m -2,0 C 0,0 C 5,7 km/h (1 Bft)
06.03.2018 12:00 22,9 C 0,6 C 57 % 84 % 992,3 hPa 0,0 l/m 1,1 km/h (1 Bft) O-NO 0,02 h 0,7 UV-I 114 W/m -1,8 C 0,6 C 3,0 km/h (1 Bft)
06.03.2018 13:00 23,1 C 0,9 C 60 % 84 % 991,8 hPa 0,0 l/m 0,5 km/h (0 Bft) O 0,00 h 0,7 UV-I 114 W/m -1,5 C 0,9 C 1,1 km/h (0 Bft)
06.03.2018 14:00 23,2 C 1,5 C 58 % 82 % 991,6 hPa 0,0 l/m 0,0 km/h (0 Bft) N 0,00 h 0,6 UV-I 110 W/m -1,2 C 1,5 C 0,0 km/h (0 Bft)
06.03.2018 15:00 23,1 C 1,6 C 58 % 82 % 991,5 hPa 0,0 l/m 0,0 km/h (0 Bft) N 0,00 h 0,0 UV-I 64 W/m -1,1 C 1,6 C 0,0 km/h (0 Bft)
06.03.2018 16:00 23,2 C 1,6 C 60 % 83 % 991,3 hPa 0,0 l/m 0,0 km/h (0 Bft) N 0,00 h 0,0 UV-I 43 W/m -1,0 C 1,6 C 0,0 km/h (0 Bft)
06.03.2018 17:00 23,1 C 1,2 C 59 % 85 % 991,6 hPa 0,0 l/m 0,0 km/h (0 Bft) N 0,00 h 0,0 UV-I 10 W/m -1,0 C 1,2 C 0,0 km/h (0 Bft)
06.03.2018 18:00 22,9 C 0,6 C 59 % 89 % 992,0 hPa 0,6 l/m 0,0 km/h (0 Bft) N 0,00 h 0,0 UV-I 0 W/m -1,0 C 0,6 C 0,0 km/h (0 Bft)
06.03.2018 19:00 22,9 C 0,1 C 59 % 92 % 992,1 hPa 0,4 l/m 0,0 km/h (0 Bft) N 0,00 h 0,0 UV-I 0 W/m -1,0 C 0,1 C 0,0 km/h (0 Bft)
06.03.2018 20:00 22,9 C -0,1 C 59 % 93 % 992,0 hPa 0,4 l/m 0,0 km/h (0 Bft) N 0,00 h 0,0 UV-I 0 W/m -1,1 C -0,1 C 0,0 km/h (0 Bft)
06.03.2018 21:00 22,8 C -0,2 C 59 % 94 % 992,3 hPa 0,4 l/m 0,4 km/h (0 Bft) SW 0,00 h 0,0 UV-I 0 W/m -1,1 C -0,2 C 1,3 km/h (1 Bft)
06.03.2018 22:00 22,7 C -0,2 C 60 % 94 % 992,3 hPa 0,4 l/m 0,5 km/h (0 Bft) SW 0,00 h 0,0 UV-I 0 W/m -1,0 C -0,2 C 2,1 km/h (1 Bft)
06.03.2018 23:00 22,8 C -0,1 C 60 % 95 % 992,3 hPa 0,4 l/m 1,0 km/h (0 Bft) S 0,00 h 0,0 UV-I 0 W/m -0,8 C -0,1 C 2,7 km/h (1 Bft)
07.03.2018 00:00 22,7 C 0,1 C 60 % 95 % 992,6 hPa 0,0 l/m 0,4 km/h (0 Bft) S-SW 0,00 h 0,0 UV-I 0 W/m -0,6 C 0,1 C 1,4 km/h (1 Bft)
07.03.2018 01:00 22,6 C 0,1 C 60 % 95 % 992,9 hPa 0,0 l/m 1,3 km/h (1 Bft) S 0,00 h 0,0 UV-I 0 W/m -0,6 C 0,1 C 2,8 km/h (1 Bft)
07.03.2018 02:00 22,5 C 0,2 C 60 % 95 % 992,8 hPa 0,0 l/m 0,4 km/h (0 Bft) S-SW 0,00 h 0,0 UV-I 0 W/m -0,5 C 0,2 C 1,6 km/h (1 Bft)
07.03.2018 03:00 22,4 C 0,2 C 61 % 95 % 992,7 hPa 0,0 l/m 0,9 km/h (0 Bft) S-SW 0,00 h 0,0 UV-I 0 W/m -0,5 C 0,2 C 1,8 km/h (1 Bft)
07.03.2018 04:00 22,3 C 0,4 C 61 % 96 % 992,8 hPa 0,0 l/m 1,5 km/h (1 Bft) S 0,00 h 0,0 UV-I 0 W/m -0,1 C 0,4 C 3,1 km/h (1 Bft)
07.03.2018 05:00 22,3 C 0,8 C 61 % 96 % 993,1 hPa 0,0 l/m 0,5 km/h (0 Bft) S 0,00 h 0,0 UV-I 0 W/m 0,2 C 0,8 C 1,3 km/h (1 Bft)
07.03.2018 06:00 22,3 C 1,3 C 60 % 96 % 993,5 hPa 0,0 l/m 0,9 km/h (0 Bft) S 0,00 h 0,0 UV-I 0 W/m 0,7 C 1,3 C 2,6 km/h (1 Bft)
07.03.2018 07:00 22,4 C 1,7 C 60 % 96 % 994,1 hPa 0,0 l/m 1,5 km/h (1 Bft) SW 0,00 h 0,0 UV-I 7 W/m 1,1 C 1,7 C 4,5 km/h (1 Bft)
07.03.2018 08:00 22,6 C 2,1 C 59 % 96 % 995,0 hPa 0,4 l/m 3,6 km/h (1 Bft) SW 0,00 h 0,0 UV-I 13 W/m 1,6 C 2,0 C 7,6 km/h (2 Bft)
07.03.2018 09:00 22,6 C 2,5 C 59 % 97 % 995,7 hPa 0,0 l/m 3,4 km/h (1 Bft) SW 0,00 h 0,0 UV-I 35 W/m 2,1 C 2,5 C 7,1 km/h (2 Bft)
07.03.2018 10:00 22,6 C 2,9 C 59 % 97 % 996,4 hPa 0,0 l/m 1,4 km/h (1 Bft) S-SW 0,00 h 0,5 UV-I 55 W/m 2,5 C 2,9 C 4,0 km/h (1 Bft)
07.03.2018 11:00 22,6 C 3,9 C 58 % 96 % 997,0 hPa 0,0 l/m 8,3 km/h (2 Bft) W-SW 0,65 h 1,2 UV-I 195 W/m 3,3 C 1,9 C 14,7 km/h (3 Bft)
07.03.2018 12:00 22,7 C 5,1 C 58 % 90 % 997,5 hPa 0,0 l/m 7,7 km/h (2 Bft) W-SW 0,63 h 1,1 UV-I 166 W/m 3,6 C 3,4 C 13,0 km/h (3 Bft)
07.03.2018 13:00 22,9 C 6,0 C 58 % 87 % 997,5 hPa 0,0 l/m 5,8 km/h (2 Bft) SW 0,73 h 1,1 UV-I 182 W/m 4,1 C 5,3 C 10,3 km/h (2 Bft)
07.03.2018 14:00 23,1 C 6,2 C 58 % 85 % 997,7 hPa 0,0 l/m 9,0 km/h (2 Bft) W-SW 0,40 h 0,9 UV-I 138 W/m 3,9 C 4,0 C 15,2 km/h (3 Bft)
07.03.2018 15:00 23,1 C 6,1 C 58 % 84 % 998,0 hPa 0,0 l/m 7,2 km/h (2 Bft) W-SW 0,17 h 0,6 UV-I 96 W/m 3,5 C 4,8 C 13,0 km/h (3 Bft)
07.03.2018 16:00 23,1 C 6,3 C 58 % 80 % 998,3 hPa 0,0 l/m 5,9 km/h (2 Bft) SW 0,08 h 0,5 UV-I 96 W/m 3,1 C 5,6 C 11,5 km/h (2 Bft)
07.03.2018 17:00 23,1 C 5,9 C 59 % 78 % 998,7 hPa 0,0 l/m 2,5 km/h (1 Bft) SW 0,00 h 0,0 UV-I 22 W/m 2,4 C 5,7 C 5,5 km/h (1 Bft)
07.03.2018 18:00 23,0 C 5,1 C 59 % 80 % 999,5 hPa 0,0 l/m 0,8 km/h (0 Bft) S-SW 0,00 h 0,0 UV-I 0 W/m 1,9 C 5,1 C 2,5 km/h (1 Bft)
07.03.2018 19:00 23,0 C 4,5 C 59 % 80 % 999,9 hPa 0,0 l/m 0,5 km/h (0 Bft) S-SW 0,00 h 0,0 UV-I 0 W/m 1,4 C 4,5 C 1,6 km/h (1 Bft)
07.03.2018 20:00 22,9 C 4,3 C 60 % 81 % 1000,4 hPa 0,0 l/m 0,3 km/h (0 Bft) S 0,00 h 0,0 UV-I 0 W/m 1,3 C 4,3 C 0,8 km/h (0 Bft)
07.03.2018 21:00 23,1 C 3,8 C 60 % 83 % 1000,8 hPa 0,0 l/m 0,5 km/h (0 Bft) S 0,00 h 0,0 UV-I 0 W/m 1,1 C 3,8 C 1,6 km/h (1 Bft)
07.03.2018 22:00 23,1 C 3,6 C 60 % 82 % 1001,3 hPa 0,0 l/m 2,0 km/h (1 Bft) S-SW 0,00 h 0,0 UV-I 0 W/m 0,8 C 3,6 C 5,2 km/h (1 Bft)
07.03.2018 23:00 23,1 C 3,5 C 59 % 81 % 1001,7 hPa 0,0 l/m 4,1 km/h (1 Bft) S-SW 0,00 h 0,0 UV-I 0 W/m 0,6 C 3,4 C 8,7 km/h (2 Bft)
08.03.2018 00:00 22,9 C 3,4 C 59 % 82 % 1002,2 hPa 0,0 l/m 5,2 km/h (1 Bft) S-SW 0,00 h 0,0 UV-I 0 W/m 0,7 C 3,0 C 10,3 km/h (2 Bft)
08.03.2018 01:00 22,7 C 3,4 C 60 % 83 % 1002,8 hPa 0,0 l/m 6,9 km/h (2 Bft) S 0,00 h 0,0 UV-I 0 W/m 0,8 C 2,5 C 11,3 km/h (2 Bft)
08.03.2018 02:00 22,6 C 3,3 C 60 % 84 % 1002,9 hPa 0,0 l/m 7,7 km/h (2 Bft) S 0,00 h 0,0 UV-I 0 W/m 0,8 C 1,9 C 12,7 km/h (3 Bft)
08.03.2018 03:00 22,5 C 3,3 C 60 % 85 % 1003,0 hPa 0,0 l/m 6,6 km/h (2 Bft) S-SW 0,00 h 0,0 UV-I 0 W/m 1,0 C 2,5 C 11,0 km/h (2 Bft)
08.03.2018 04:00 22,4 C 3,3 C 61 % 85 % 1003,5 hPa 0,0 l/m 6,4 km/h (2 Bft) S-SW 0,00 h 0,0 UV-I 0 W/m 1,0 C 2,4 C 11,5 km/h (2 Bft)
08.03.2018 05:00 22,3 C 3,3 C 61 % 85 % 1003,9 hPa 0,0 l/m 8,3 km/h (2 Bft) SW 0,00 h 0,0 UV-I 0 W/m 1,0 C 1,4 C 13,9 km/h (3 Bft)
08.03.2018 06:00 22,3 C 3,1 C 60 % 85 % 1004,7 hPa 0,0 l/m 8,9 km/h (2 Bft) SW 0,00 h 0,0 UV-I 7 W/m 0,8 C 0,9 C 14,9 km/h (3 Bft)
08.03.2018 07:00 22,5 C 2,9 C 60 % 85 % 1005,6 hPa 0,0 l/m 8,3 km/h (2 Bft) SW 0,00 h 0,0 UV-I 29 W/m 0,6 C 1,1 C 14,3 km/h (3 Bft)
08.03.2018 08:00 22,6 C 3,1 C 59 % 84 % 1006,4 hPa 0,0 l/m 10,1 km/h (2 Bft) W-SW 0,00 h 0,0 UV-I 56 W/m 0,6 C -0,1 C 16,6 km/h (3 Bft)
08.03.2018 09:00 22,7 C 3,9 C 59 % 79 % 1006,8 hPa 0,0 l/m 10,4 km/h (2 Bft) W-SW 0,68 h 0,9 UV-I 218 W/m 0,7 C 0,7 C 16,5 km/h (3 Bft)
08.03.2018 10:00 22,8 C 4,7 C 59 % 76 % 1007,1 hPa 0,0 l/m 9,9 km/h (2 Bft) W-SW 0,68 h 1,3 UV-I 238 W/m 0,8 C 1,9 C 15,6 km/h (3 Bft)
08.03.2018 11:00 23,0 C 5,3 C 58 % 72 % 1007,1 hPa 0,0 l/m 8,3 km/h (2 Bft) W-SW 0,45 h 1,0 UV-I 192 W/m 0,7 C 3,4 C 13,9 km/h (3 Bft)
08.03.2018 12:00 23,1 C 3,8 C 57 % 85 % 1007,5 hPa 0,0 l/m 7,6 km/h (2 Bft) S-SW 0,35 h 1,0 UV-I 157 W/m 1,6 C 2,4 C 13,1 km/h (3 Bft)
08.03.2018 13:00 23,1 C 5,3 C 56 % 82 % 1006,9 hPa 0,0 l/m 6,3 km/h (2 Bft) SW 0,92 h 1,4 UV-I 276 W/m 2,4 C 4,4 C 11,3 km/h (2 Bft)
08.03.2018 14:00 23,4 C 6,9 C 55 % 74 % 1006,4 hPa 0,0 l/m 9,0 km/h (2 Bft) S 0,93 h 1,4 UV-I 395 W/m 2,5 C 4,9 C 14,1 km/h (3 Bft)
08.03.2018 15:00 23,6 C 7,6 C 55 % 67 % 1005,9 hPa 0,0 l/m 7,2 km/h (2 Bft) S 0,62 h 0,9 UV-I 262 W/m 1,8 C 6,5 C 11,8 km/h (2 Bft)
08.03.2018 16:00 23,4 C 7,6 C 55 % 63 % 1005,4 hPa 0,0 l/m 3,3 km/h (1 Bft) S 0,27 h 0,5 UV-I 124 W/m 0,9 C 7,5 C 6,0 km/h (2 Bft)
08.03.2018 17:00 23,2 C 7,1 C 53 % 61 % 1005,1 hPa 0,0 l/m 3,7 km/h (1 Bft) S-SO 0,00 h 0,0 UV-I 30 W/m 0,1 C 7,0 C 6,3 km/h (2 Bft)
08.03.2018 18:00 22,9 C 5,8 C 53 % 66 % 1005,0 hPa 0,0 l/m 3,0 km/h (1 Bft) SO 0,00 h 0,0 UV-I 5 W/m -0,1 C 5,8 C 5,3 km/h (1 Bft)
08.03.2018 19:00 22,9 C 4,7 C 56 % 69 % 1004,9 hPa 0,0 l/m 2,1 km/h (1 Bft) SO 0,00 h 0,0 UV-I 0 W/m -0,6 C 4,6 C 4,5 km/h (1 Bft)
08.03.2018 20:00 22,9 C 4,8 C 56 % 67 % 1004,6 hPa 0,0 l/m 7,8 km/h (2 Bft) S-SO 0,00 h 0,0 UV-I 0 W/m -0,7 C 3,4 C 11,6 km/h (2 Bft)
08.03.2018 21:00 22,8 C 5,2 C 56 % 66 % 1004,7 hPa 0,0 l/m 11,3 km/h (2 Bft) S-SO 0,00 h 0,0 UV-I 0 W/m -0,6 C 1,5 C 16,5 km/h (3 Bft)
08.03.2018 22:00 22,8 C 5,5 C 56 % 65 % 1004,8 hPa 0,0 l/m 8,3 km/h (2 Bft) S 0,00 h 0,0 UV-I 0 W/m -0,6 C 3,6 C 13,3 km/h (3 Bft)
08.03.2018 23:00 22,8 C 5,6 C 57 % 64 % 1004,9 hPa 0,0 l/m 9,4 km/h (2 Bft) S 0,00 h 0,0 UV-I 0 W/m -0,7 C 3,2 C 14,8 km/h (3 Bft)
09.03.2018 00:00 22,7 C 4,2 C 58 % 76 % 1006,6 hPa 0,0 l/m 10,9 km/h (2 Bft) W 0,00 h 0,0 UV-I 0 W/m 0,2 C 0,9 C 17,2 km/h (3 Bft)
09.03.2018 01:00 22,6 C 2,3 C 60 % 88 % 1007,6 hPa 0,2 l/m 4,2 km/h (1 Bft) SW 0,00 h 0,0 UV-I 0 W/m 0,5 C 2,1 C 8,4 km/h (2 Bft)
09.03.2018 02:00 22,4 C 1,2 C 59 % 92 % 1007,3 hPa 0,0 l/m 7,0 km/h (2 Bft) S 0,00 h 0,0 UV-I 0 W/m 0,1 C 0,1 C 11,5 km/h (2 Bft)
09.03.2018 03:00 22,4 C 1,1 C 60 % 93 % 1007,7 hPa 0,0 l/m 7,9 km/h (2 Bft) SW 0,00 h 0,0 UV-I 0 W/m 0,1 C -1,0 C 12,9 km/h (3 Bft)
09.03.2018 04:00 22,3 C 1,0 C 60 % 93 % 1008,3 hPa 0,0 l/m 3,1 km/h (1 Bft) SW 0,00 h 0,0 UV-I 0 W/m 0,0 C 0,9 C 6,8 km/h (2 Bft)
09.03.2018 05:00 22,3 C 0,9 C 60 % 93 % 1008,9 hPa 0,0 l/m 4,7 km/h (1 Bft) SW 0,00 h 0,0 UV-I 0 W/m -0,1 C 0,5 C 9,7 km/h (2 Bft)
09.03.2018 06:00 22,5 C 0,8 C 59 % 93 % 1009,4 hPa 0,0 l/m 2,3 km/h (1 Bft) S 0,00 h 0,0 UV-I 0 W/m -0,2 C 0,7 C 5,2 km/h (1 Bft)
09.03.2018 07:00 22,6 C 0,8 C 59 % 93 % 1010,0 hPa 0,0 l/m 1,4 km/h (1 Bft) S 0,00 h 0,0 UV-I 10 W/m -0,2 C 0,8 C 3,0 km/h (1 Bft)
09.03.2018 08:00 22,6 C 1,0 C 59 % 94 % 1010,4 hPa 0,0 l/m 2,9 km/h (1 Bft) S 0,00 h 0,0 UV-I 39 W/m 0,2 C 0,9 C 6,1 km/h (2 Bft)
09.03.2018 09:00 22,5 C 1,3 C 59 % 94 % 1010,8 hPa 0,0 l/m 3,5 km/h (1 Bft) S 0,00 h 0,5 UV-I 73 W/m 0,4 C 1,2 C 7,1 km/h (2 Bft)
09.03.2018 10:00 22,7 C 1,9 C 58 % 93 % 1010,8 hPa 0,0 l/m 5,5 km/h (1 Bft) S-SO 0,03 h 0,6 UV-I 100 W/m 0,8 C 1,3 C 9,8 km/h (2 Bft)
09.03.2018 11:00 22,7 C 2,5 C 58 % 92 % 1010,9 hPa 0,0 l/m 3,9 km/h (1 Bft) S-SW 0,47 h 1,1 UV-I 172 W/m 1,4 C 2,1 C 7,6 km/h (2 Bft)
09.03.2018 12:00 22,9 C 3,6 C 58 % 88 % 1010,8 hPa 0,0 l/m 5,9 km/h (2 Bft) SW 0,85 h 1,3 UV-I 206 W/m 1,9 C 2,8 C 10,4 km/h (2 Bft)
09.03.2018 13:00 23,1 C 4,2 C 58 % 87 % 1010,5 hPa 0,0 l/m 6,2 km/h (2 Bft) W-SW 0,67 h 1,2 UV-I 182 W/m 2,2 C 3,4 C 11,0 km/h (2 Bft)
09.03.2018 14:00 23,1 C 4,5 C 58 % 88 % 1010,5 hPa 0,0 l/m 2,8 km/h (1 Bft) SW 0,18 h 0,8 UV-I 130 W/m 2,7 C 4,3 C 6,3 km/h (2 Bft)
09.03.2018 15:00 23,1 C 4,5 C 59 % 89 % 1010,5 hPa 0,0 l/m 0,5 km/h (0 Bft) S-SW 0,00 h 0,0 UV-I 35 W/m 2,9 C 4,5 C 1,5 km/h (1 Bft)
09.03.2018 16:00 23,1 C 4,5 C 61 % 91 % 1010,4 hPa 0,0 l/m 0,1 km/h (0 Bft) S 0,00 h 0,0 UV-I 29 W/m 3,2 C 4,5 C 0,4 km/h (0 Bft)
09.03.2018 17:00 23,1 C 4,5 C 61 % 92 % 1010,2 hPa 0,0 l/m 0,0 km/h (0 Bft) N 0,00 h 0,0 UV-I 14 W/m 3,3 C 4,5 C 0,0 km/h (0 Bft)
09.03.2018 18:00 23,1 C 4,4 C 62 % 92 % 1010,3 hPa 0,2 l/m 0,0 km/h (0 Bft) N 0,00 h 0,0 UV-I 0 W/m 3,3 C 4,4 C 0,0 km/h (0 Bft)
09.03.2018 19:00 23,1 C 4,2 C 62 % 93 % 1010,2 hPa 0,0 l/m 0,0 km/h (0 Bft) N 0,00 h 0,0 UV-I 0 W/m 3,1 C 4,2 C 0,0 km/h (0 Bft)
09.03.2018 20:00 23,2 C 3,8 C 63 % 93 % 1010,2 hPa 0,0 l/m 0,0 km/h (0 Bft) N 0,00 h 0,0 UV-I 0 W/m 2,7 C 3,8 C 0,0 km/h (0 Bft)
09.03.2018 21:00 23,1 C 3,3 C 63 % 93 % 1010,2 hPa 0,2 l/m 0,0 km/h (0 Bft) N 0,00 h 0,0 UV-I 0 W/m 2,3 C 3,3 C 0,0 km/h (0 Bft)
09.03.2018 22:00 22,9 C 2,9 C 64 % 94 % 1009,7 hPa 0,0 l/m 0,0 km/h (0 Bft) N 0,00 h 0,0 UV-I 0 W/m 2,0 C 2,9 C 0,0 km/h (0 Bft)
09.03.2018 23:00 22,9 C 2,7 C 63 % 94 % 1009,5 hPa 0,4 l/m 0,0 km/h (0 Bft) N 0,00 h 0,0 UV-I 0 W/m 1,9 C 2,7 C 0,0 km/h (0 Bft)
10.03.2018 00:00 22,9 C 2,6 C 64 % 95 % 1008,9 hPa 0,0 l/m 0,0 km/h (0 Bft) N 0,00 h 0,0 UV-I 0 W/m 1,9 C 2,6 C 0,0 km/h (0 Bft)
10.03.2018 01:00 22,8 C 2,5 C 64 % 95 % 1008,9 hPa 0,0 l/m 0,0 km/h (0 Bft) N 0,00 h 0,0 UV-I 0 W/m 1,8 C 2,5 C 0,0 km/h (0 Bft)
10.03.2018 02:00 22,8 C 2,3 C 64 % 95 % 1008,7 hPa 0,0 l/m 0,0 km/h (0 Bft) N 0,00 h 0,0 UV-I 0 W/m 1,6 C 2,3 C 0,0 km/h (0 Bft)
10.03.2018 03:00 22,8 C 2,3 C 64 % 95 % 1008,4 hPa 0,0 l/m 0,0 km/h (0 Bft) N 0,00 h 0,0 UV-I 0 W/m 1,6 C 2,3 C 0,0 km/h (0 Bft)
10.03.2018 04:00 22,7 C 2,4 C 64 % 96 % 1008,1 hPa 0,2 l/m 0,0 km/h (0 Bft) N 0,00 h 0,0 UV-I 0 W/m 1,8 C 2,4 C 0,0 km/h (0 Bft)
10.03.2018 05:00 22,7 C 2,4 C 64 % 96 % 1007,8 hPa 0,0 l/m 0,0 km/h (0 Bft) N 0,00 h 0,0 UV-I 0 W/m 1,8 C 2,4 C 0,0 km/h (0 Bft)
10.03.2018 06:00 22,8 C 2,4 C 63 % 96 % 1007,7 hPa 0,0 l/m 0,0 km/h (0 Bft) N 0,00 h 0,0 UV-I 5 W/m 1,9 C 2,4 C 0,0 km/h (0 Bft)
10.03.2018 07:00 22,9 C 2,8 C 63 % 96 % 1007,7 hPa 0,0 l/m 0,0 km/h (0 Bft) N 0,00 h 0,0 UV-I 17 W/m 2,2 C 2,8 C 0,0 km/h (0 Bft)
10.03.2018 08:00 23,0 C 3,7 C 63 % 97 % 1007,8 hPa 0,0 l/m 0,0 km/h (0 Bft) N 0,00 h 0,6 UV-I 54 W/m 3,3 C 3,7 C 0,0 km/h (0 Bft)
10.03.2018 09:00 24,1 C 6,6 C 60 % 94 % 1007,5 hPa 0,0 l/m 0,0 km/h (0 Bft) N-NW 1,00 h 1,1 UV-I 347 W/m 5,7 C 6,6 C 0,3 km/h (0 Bft)
10.03.2018 10:00 25,5 C 10,1 C 56 % 79 % 1007,2 hPa 0,0 l/m 1,3 km/h (1 Bft) S 1,00 h 1,7 UV-I 431 W/m 6,6 C 10,1 C 3,0 km/h (1 Bft)
10.03.2018 11:00 25,1 C 11,0 C 57 % 72 % 1007,3 hPa 0,0 l/m 1,9 km/h (1 Bft) S 1,00 h 2,1 UV-I 437 W/m 6,3 C 11,0 C 4,8 km/h (1 Bft)
10.03.2018 12:00 25,1 C 11,9 C 56 % 67 % 1007,1 hPa 0,0 l/m 3,7 km/h (1 Bft) S-SO 1,00 h 2,2 UV-I 464 W/m 5,9 C 11,8 C 8,5 km/h (2 Bft)
10.03.2018 13:00 24,8 C 11,6 C 54 % 67 % 1006,8 hPa 0,0 l/m 2,9 km/h (1 Bft) S 1,00 h 1,5 UV-I 256 W/m 5,7 C 11,6 C 6,7 km/h (2 Bft)
10.03.2018 14:00 24,3 C 10,8 C 52 % 70 % 1006,7 hPa 0,0 l/m 3,8 km/h (1 Bft) S 0,42 h 1,0 UV-I 152 W/m 5,6 C 10,7 C 8,6 km/h (2 Bft)
10.03.2018 15:00 24,1 C 11,1 C 53 % 72 % 1006,6 hPa 0,0 l/m 2,8 km/h (1 Bft) S 0,75 h 0,9 UV-I 183 W/m 6,2 C 11,1 C 6,1 km/h (2 Bft)
10.03.2018 16:00 23,8 C 10,9 C 53 % 74 % 1006,4 hPa 0,0 l/m 3,9 km/h (1 Bft) S 0,00 h 0,5 UV-I 67 W/m 6,5 C 10,7 C 8,1 km/h (2 Bft)
10.03.2018 17:00 23,5 C 10,1 C 53 % 78 % 1006,5 hPa 0,0 l/m 3,1 km/h (1 Bft) S 0,00 h 0,0 UV-I 23 W/m 6,6 C 10,1 C 7,8 km/h (2 Bft)
10.03.2018 18:00 23,2 C 9,0 C 53 % 87 % 1006,8 hPa 0,0 l/m 3,9 km/h (1 Bft) S 0,00 h 0,0 UV-I 0 W/m 6,9 C 8,9 C 8,3 km/h (2 Bft)
10.03.2018 19:00 23,1 C 8,0 C 53 % 92 % 1006,9 hPa 0,2 l/m 0,5 km/h (0 Bft) S 0,00 h 0,0 UV-I 0 W/m 6,8 C 7,9 C 1,5 km/h (1 Bft)
10.03.2018 20:00 23,1 C 7,8 C 54 % 94 % 1006,8 hPa 0,0 l/m 1,0 km/h (0 Bft) SO 0,00 h 0,0 UV-I 0 W/m 6,8 C 7,8 C 3,3 km/h (1 Bft)
10.03.2018 21:00 23,1 C 7,7 C 55 % 95 % 1006,5 hPa 0,0 l/m 0,1 km/h (0 Bft) SO 0,00 h 0,0 UV-I 0 W/m 6,9 C 7,7 C 0,6 km/h (0 Bft)
10.03.2018 22:00 23,1 C 7,7 C 56 % 95 % 1006,2 hPa 0,0 l/m 0,0 km/h (0 Bft) S-SO 0,00 h 0,0 UV-I 0 W/m 7,0 C 7,7 C 0,1 km/h (0 Bft)
10.03.2018 23:00 23,1 C 7,7 C 57 % 95 % 1005,9 hPa 0,0 l/m 0,8 km/h (0 Bft) S-SO 0,00 h 0,0 UV-I 0 W/m 6,9 C 7,7 C 2,4 km/h (1 Bft)
11.03.2018 00:00 23,1 C 7,6 C 58 % 95 % 1005,4 hPa 0,0 l/m 0,4 km/h (0 Bft) SO 0,00 h 0,0 UV-I 0 W/m 6,8 C 7,6 C 1,6 km/h (1 Bft)
11.03.2018 01:00 22,9 C 7,6 C 59 % 95 % 1005,0 hPa 0,0 l/m 0,0 km/h (0 Bft) N 0,00 h 0,0 UV-I 0 W/m 6,8 C 7,6 C 0,0 km/h (0 Bft)
11.03.2018 02:00 22,8 C 7,4 C 59 % 95 % 1004,4 hPa 0,0 l/m 0,1 km/h (0 Bft) S 0,00 h 0,0 UV-I 0 W/m 6,6 C 7,4 C 0,4 km/h (0 Bft)
11.03.2018 03:00 22,8 C 7,1 C 59 % 95 % 1003,7 hPa 0,0 l/m 0,0 km/h (0 Bft) N 0,00 h 0,0 UV-I 0 W/m 6,4 C 7,1 C 0,0 km/h (0 Bft)
11.03.2018 04:00 22,8 C 6,9 C 60 % 95 % 1003,5 hPa 0,0 l/m 0,0 km/h (0 Bft) N 0,00 h 0,0 UV-I 0 W/m 6,1 C 6,9 C 0,2 km/h (0 Bft)
11.03.2018 05:00 22,8 C 6,5 C 60 % 94 % 1002,9 hPa 0,0 l/m 0,0 km/h (0 Bft) N 0,00 h 0,0 UV-I 0 W/m 5,6 C 6,5 C 0,0 km/h (0 Bft)
11.03.2018 06:00 22,8 C 5,5 C 60 % 94 % 1002,5 hPa 0,0 l/m 0,0 km/h (0 Bft) N 0,00 h 0,0 UV-I 8 W/m 4,5 C 5,5 C 0,0 km/h (0 Bft)
11.03.2018 07:00 22,9 C 4,2 C 60 % 93 % 1002,7 hPa 0,0 l/m 0,1 km/h (0 Bft) NO 0,00 h 0,0 UV-I 49 W/m 3,2 C 4,2 C 0,1 km/h (0 Bft)
11.03.2018 08:00 23,3 C 6,6 C 59 % 94 % 1002,0 hPa 0,0 l/m 0,1 km/h (0 Bft) NO 0,98 h 0,7 UV-I 244 W/m 5,7 C 6,6 C 0,4 km/h (0 Bft)
11.03.2018 09:00 24,9 C 11,6 C 54 % 77 % 1001,1 hPa 0,0 l/m 0,0 km/h (0 Bft) N 1,00 h 1,4 UV-I 412 W/m 7,7 C 11,6 C 0,0 km/h (0 Bft)
11.03.2018 10:00 25,5 C 13,6 C 48 % 69 % 1001,4 hPa 0,0 l/m 2,0 km/h (1 Bft) W-SW 1,00 h 2,1 UV-I 520 W/m 8,0 C 13,6 C 4,0 km/h (1 Bft)
11.03.2018 11:00 25,2 C 15,8 C 49 % 58 % 1000,2 hPa 0,0 l/m 5,2 km/h (1 Bft) S-SO 1,00 h 2,3 UV-I 484 W/m 7,6 C 15,2 C 8,3 km/h (2 Bft)
11.03.2018 12:00 25,0 C 16,3 C 50 % 54 % 999,3 hPa 0,0 l/m 6,1 km/h (2 Bft) SO 0,98 h 2,1 UV-I 393 W/m 7,1 C 15,8 C 11,1 km/h (2 Bft)
11.03.2018 13:00 24,5 C 16,4 C 48 % 53 % 998,5 hPa 0,0 l/m 4,2 km/h (1 Bft) SO 1,02 h 1,5 UV-I 254 W/m 6,7 C 16,3 C 8,8 km/h (2 Bft)
11.03.2018 14:00 24,3 C 15,8 C 48 % 59 % 997,8 hPa 0,0 l/m 0,8 km/h (0 Bft) O-SO 1,00 h 1,2 UV-I 240 W/m 7,8 C 15,8 C 3,1 km/h (1 Bft)
11.03.2018 15:00 24,3 C 16,3 C 49 % 57 % 997,0 hPa 0,0 l/m 1,9 km/h (1 Bft) O 0,90 h 1,0 UV-I 272 W/m 7,8 C 16,3 C 5,6 km/h (1 Bft)
11.03.2018 16:00 24,1 C 15,8 C 50 % 58 % 996,4 hPa 0,0 l/m 1,6 km/h (1 Bft) O-SO 0,60 h 0,6 UV-I 184 W/m 7,5 C 15,8 C 4,5 km/h (1 Bft)
11.03.2018 17:00 24,0 C 14,8 C 51 % 62 % 996,2 hPa 0,0 l/m 0,1 km/h (0 Bft) O-SO 0,00 h 0,0 UV-I 25 W/m 7,5 C 14,8 C 0,6 km/h (0 Bft)
11.03.2018 18:00 23,8 C 13,1 C 54 % 68 % 996,0 hPa 0,0 l/m 0,5 km/h (0 Bft) O-NO 0,00 h 0,0 UV-I 0 W/m 7,4 C 13,1 C 1,4 km/h (1 Bft)
11.03.2018 19:00 23,7 C 11,8 C 56 % 75 % 995,9 hPa 0,0 l/m 3,2 km/h (1 Bft) O-NO 0,00 h 0,0 UV-I 0 W/m 7,5 C 11,8 C 7,9 km/h (2 Bft)
11.03.2018 20:00 23,6 C 10,7 C 56 % 79 % 995,6 hPa 0,0 l/m 1,4 km/h (1 Bft) O-NO 0,00 h 0,0 UV-I 0 W/m 7,2 C 10,7 C 4,2 km/h (1 Bft)
11.03.2018 21:00 23,6 C 10,0 C 57 % 80 % 995,3 hPa 0,0 l/m 2,1 km/h (1 Bft) NO 0,00 h 0,0 UV-I 0 W/m 6,7 C 10,0 C 5,7 km/h (1 Bft)
11.03.2018 22:00 23,5 C 9,2 C 57 % 81 % 995,2 hPa 0,0 l/m 1,2 km/h (1 Bft) O-NO 0,00 h 0,0 UV-I 0 W/m 6,1 C 9,2 C 4,0 km/h (1 Bft)
11.03.2018 23:00 23,4 C 8,5 C 58 % 83 % 994,5 hPa 0,0 l/m 2,3 km/h (1 Bft) O-NO 0,00 h 0,0 UV-I 0 W/m 5,8 C 8,5 C 5,7 km/h (1 Bft)
Min-Datum _ 06.03.18 06.03.18 05.03.18 11.03.18 06.03.18 - 05.03.18 - - - - 05.03.18 06.03.18 05.03.18
_ Min-Zeit 06:01 05:38 16:23 12:46 16:37 - 00:00 - - - - 05:33 05:37 00:00
Minimum _ 22,0 C -2,3 C 45 % 52 % 991,1 hPa - 0,0 km/h (0 Bft) - - - - -5,2 C -10,3 C 0,0 km/h (0 Bft)
Max-Datum _ 11.03.18 11.03.18 09.03.18 07.03.18 09.03.18 06.03.18 09.03.18 - 05.03.18 11.03.18 08.03.18 11.03.18 11.03.18 09.03.18
_ Max-Zeit 09:55 13:08 22:04 08:29 11:06 18:05 00:13 - 13:32 12:26 14:09 10:56 13:07 00:13
Maximum _ 25,8 C 16,9 C 64 % 97 % 1011,2 hPa 0,6 l/m 25,7 km/h
W (4 Bft)
- 0,03 h 2,8 UV-I 670 W/m 8,5 C 16,8 C 35,4 km/h
W-NW (5 Bft)
Durchschnitt _ 23,0 C 4,0 C 58 % 84 % 1001,6 hPa #4,4 l/m 3,3 km/h (1 Bft) O-NO #30:04 h 1,1 UV-I 149 W/m 1,4 C 3,5 C 6,3 km/h (2 Bft)